{"data":{"norad_id":50851,"intl_designator":"2022-001BA","name":"STARLINK-3314","alt_names":[],"object_type":"PAYLOAD","status":"ACTIVE","operator":null,"country":"US","launch_date":"2022-01-06","launch_site_code":"AFETR","launch_vehicle":null,"mission":null,"orbit_class":"UNKNOWN","rcs_meters":null,"size_class":null,"mass_kg":null,"dimensions":null,"purposes":["comms"],"wikipedia_slug":null,"has_3d_model":false,"image_url":null,"decayed_at":null,"tle_current":{"epoch":"2026-09-19T22:35:03.723648Z","epoch_age_seconds":96703,"freshness":"FRESH","line1":"1 50851U 22001BA  26262.94101532  .00000495  00000+0  26364-4 0  9999","line2":"2 50851  53.1614  12.4616 0001009  83.4787 276.6330 15.33549073259797","mean_motion":15.33549073,"eccentricity":0.0001009,"inclination_deg":53.1614,"raan_deg":12.4616,"arg_perigee_deg":83.4787,"mean_anomaly_deg":276.633,"bstar":2.6364e-5,"rev_number":25979,"period_min":93.899831792341,"perigee_km":464.54304787563,"apogee_km":465.9240400514,"semimajor_km":6843.3705439635,"source":"CELESTRAK","updated_at":"2026-09-20T09:00:39.583569Z"}}}